Angel Fire, NM

10:41 AM MST on December 12, 2019 (GMT -0700)
Angel Fire

Weather History for KAXX - October, 2019

Change the Weather History Date:

Wednesday, October 9, 2019

  Actual Average (WUND) Record (WUND)
Temperature  
Mean Temperature 45 °F -  
Max Temperature 62 °F - - (-1)
Min Temperature 28 °F - - (-1)
Degree Days  
Heating Degree Days 20    
Moisture  
Dew Point 25 °F    
Average Humidity 49    
Maximum Humidity 95    
Minimum Humidity 19    
Precipitation  
Precipitation 0.00 in - - ()
Sea Level Pressure  
Sea Level Pressure 30.02 in    
Wind  
Wind Speed 7 mph (West)    
Max Wind Speed 26 mph    
Max Gust Speed 38 mph    
Visibility 10 miles    
Events      
Averages and records for this station are not official NWS values.
T = Trace of Precipitation, MM = Missing Value Source: NWS Daily Summary

Daily Weather History Graph

Daily Weather History Graph

Search for Another Location

Airport or City:

Astronomy

Oct. 09, 2019 Rise Set
Actual Time 7:02 AM MDT 6:33 PM MDT
Civil Twilight 6:37 AM MDT 6:59 PM MDT
Nautical Twilight 6:07 AM MDT 7:28 PM MDT
Astronomical Twilight 5:37 AM MDT 7:58 PM MDT
Moon 4:58 PM MDT (10/9) 3:01 AM MDT (10/9)
Length of Visible Light 12h 22m
Length of Day
11h 30m
Waxing Gibbous, 85% of the Moon is Illuminated
Oct 9
Waxing Gibbous
Oct 13
Full
Oct 21
Last Quarter
Oct 27
New
Nov 4
First Quarter

Hourly Weather History & Observations

Time (MDT) Temp. Windchill Dew Point Humidity Pressure Visibility Wind Dir Wind Speed Gust Speed Precip Events Conditions
12:15 AM 32.2 °F - 29.7 °F 90% 30.14 in 10.0 mi Calm Calm - N/A   Clear
12:35 AM 32.4 °F 29.1 °F 29.3 °F 88% 30.13 in 10.0 mi South 3.5 mph - N/A   Clear
12:55 AM 31.3 °F - 27.5 °F 86% 30.12 in 10.0 mi Calm Calm - N/A   Clear
1:15 AM 31.1 °F 27.7 °F 28.0 °F 88% 30.12 in 10.0 mi South 3.5 mph - N/A   Clear
1:35 AM 32.0 °F - 28.6 °F 87% 30.12 in 10.0 mi Calm Calm - N/A   Clear
1:55 AM 32.0 °F - 28.9 °F 88% 30.12 in 10.0 mi Calm Calm - N/A   Clear
2:15 AM 35.8 °F - 31.8 °F 86% 30.12 in 10.0 mi Calm Calm - N/A   Clear
2:35 AM 38.7 °F - 32.9 °F 80% 30.11 in 10.0 mi Calm Calm - N/A   Clear
2:55 AM 39.9 °F 36.7 °F 33.3 °F 77% 30.11 in 10.0 mi NNW 4.6 mph - N/A   Clear
3:15 AM 36.7 °F - 31.5 °F 81% 30.10 in 10.0 mi Calm Calm - N/A   Clear
3:35 AM 38.5 °F - 32.7 °F 80% 30.09 in 10.0 mi Calm Calm - N/A   Clear
3:55 AM 39.0 °F - 33.4 °F 80% 30.09 in 10.0 mi Calm Calm - N/A   Clear
4:15 AM 36.1 °F 31.4 °F 32.4 °F 86% 30.09 in 10.0 mi NE 5.8 mph - N/A   Clear
4:35 AM 37.2 °F - 33.1 °F 85% 30.09 in 10.0 mi Calm Calm - N/A   Clear
4:55 AM 36.1 °F - 31.5 °F 83% 30.08 in 10.0 mi Calm Calm - N/A   Clear
5:15 AM 32.0 °F - 29.8 °F 92% 30.08 in 10.0 mi Calm Calm - N/A   Clear
5:35 AM 33.3 °F - 31.3 °F 92% 30.08 in 10.0 mi Calm Calm - N/A   Clear
5:55 AM 30.6 °F - 28.9 °F 94% 30.08 in 10.0 mi Calm Calm - N/A   Clear
6:15 AM 32.5 °F - 30.6 °F 92% 30.08 in 10.0 mi Calm Calm - N/A   Clear
6:35 AM 30.6 °F - 28.4 °F 92% 30.08 in 10.0 mi Calm Calm - N/A   Clear
6:55 AM 28.9 °F - 27.7 °F 95% 30.08 in 10.0 mi Calm Calm - N/A   Clear
7:35 AM 30.0 °F - 28.6 °F 94% 30.08 in 10.0 mi Calm Calm - N/A   Clear
7:55 AM 31.5 °F - 30.2 °F 95% 30.08 in 10.0 mi Calm Calm - N/A   Clear
8:15 AM 37.2 °F - 35.8 °F 95% 30.08 in 10.0 mi Calm Calm - N/A   Clear
8:35 AM 42.3 °F - 38.7 °F 87% 30.09 in 10.0 mi Calm Calm - N/A   Clear
8:55 AM 47.7 °F - 39.2 °F 72% 30.08 in 10.0 mi SE 3.5 mph - N/A   Clear
9:35 AM 52.7 °F - 34.0 °F 49% 30.08 in 10.0 mi Calm Calm - N/A   Clear
9:55 AM 53.8 °F - 30.9 °F 42% 30.08 in 10.0 mi West 6.9 mph - N/A   Clear
10:15 AM 54.5 °F - 28.9 °F 38% 30.08 in 10.0 mi West 11.5 mph 18.4 mph N/A   Clear
10:35 AM 55.4 °F - 27.5 °F 34% 30.07 in 10.0 mi WSW 12.7 mph 17.3 mph N/A   Clear
10:55 AM 56.5 °F - 28.4 °F 34% 30.06 in 10.0 mi West 12.7 mph 18.4 mph N/A   Clear
11:15 AM 57.2 °F - 28.8 °F 34% 30.06 in 10.0 mi West 10.4 mph 18.4 mph N/A   Clear
11:35 AM 58.1 °F - 27.3 °F 31% 30.06 in 10.0 mi West 12.7 mph 19.6 mph N/A   Clear
11:55 AM 58.5 °F - 27.7 °F 31% 30.05 in 10.0 mi West 13.8 mph 20.7 mph N/A   Clear
12:15 PM 58.5 °F - 28.6 °F 32% 30.04 in 10.0 mi West 9.2 mph 23.0 mph N/A   Clear
12:35 PM 58.5 °F - 29.3 °F 33% 30.03 in 10.0 mi West 15.0 mph 24.2 mph N/A   Clear
12:55 PM 59.0 °F - 28.8 °F 32% 30.02 in 10.0 mi West 15.0 mph 21.9 mph N/A   Clear
1:15 PM 59.7 °F - 28.9 °F 31% 30.01 in 10.0 mi West 12.7 mph 24.2 mph N/A   Clear
1:35 PM 61.0 °F - 27.1 °F 28% 29.99 in 10.0 mi West 17.3 mph 24.2 mph N/A   Clear
1:55 PM 61.0 °F - 26.2 °F 27% 29.98 in 10.0 mi WSW 20.7 mph 29.9 mph N/A   Clear
2:15 PM 61.3 °F - 26.6 °F 27% 29.97 in 10.0 mi West 20.7 mph 31.1 mph N/A   Clear
2:35 PM 61.7 °F - 27.5 °F 27% 29.96 in 10.0 mi West 21.9 mph 28.8 mph N/A   Clear
2:55 PM 61.3 °F - 27.3 °F 27% 29.95 in 10.0 mi WNW 20.7 mph 33.4 mph N/A   Clear
3:15 PM 62.2 °F - 25.9 °F 25% 29.95 in 10.0 mi WSW 18.4 mph 25.3 mph N/A   Clear
3:35 PM 61.9 °F - 24.3 °F 24% 29.94 in 10.0 mi West 16.1 mph 26.5 mph N/A   Clear
3:55 PM 61.7 °F - 23.5 °F 23% 29.93 in 10.0 mi West 19.6 mph 29.9 mph N/A   Clear
4:15 PM 62.1 °F - 22.5 °F 22% 29.92 in 10.0 mi West 18.4 mph 29.9 mph N/A   Clear
4:35 PM 61.9 °F - 21.9 °F 22% 29.92 in 10.0 mi SW 19.6 mph 29.9 mph N/A   Clear
4:55 PM 60.6 °F - 21.9 °F 23% 29.92 in 10.0 mi WSW 20.7 mph 32.2 mph N/A   Clear
5:15 PM 60.4 °F - 21.2 °F 22% 29.92 in 10.0 mi WSW 20.7 mph 27.6 mph N/A   Clear
5:35 PM 59.9 °F - 20.7 °F 22% 29.92 in 10.0 mi WSW 21.9 mph 31.1 mph N/A   Clear
5:55 PM 59.0 °F - 20.7 °F 23% 29.92 in 10.0 mi WSW 15.0 mph 24.2 mph N/A   Clear
6:15 PM 57.2 °F - 20.3 °F 24% 29.93 in 10.0 mi West 10.4 mph - N/A   Clear
6:35 PM 56.5 °F - 15.1 °F 20% 29.93 in 10.0 mi West 19.6 mph 31.1 mph N/A   Clear
6:55 PM 55.8 °F - 15.3 °F 20% 29.93 in 10.0 mi West 15.0 mph 25.3 mph N/A   Clear
7:15 PM 55.6 °F - 14.9 °F 20% 29.94 in 10.0 mi West 17.3 mph 27.6 mph N/A   Clear
7:35 PM 54.7 °F - 13.1 °F 19% 29.94 in 10.0 mi West 12.7 mph 24.2 mph N/A   Clear
7:55 PM 54.5 °F - 12.7 °F 19% 29.94 in 10.0 mi West 19.6 mph 26.5 mph N/A   Clear
8:15 PM 54.1 °F - 12.9 °F 19% 29.95 in 10.0 mi West 19.6 mph 26.5 mph N/A   Clear
8:35 PM 54.0 °F - 13.3 °F 20% 29.95 in 10.0 mi West 21.9 mph 32.2 mph N/A   Clear
8:55 PM 54.0 °F - 13.3 °F 20% 29.94 in 10.0 mi West 25.3 mph 31.1 mph N/A   Clear
9:15 PM 54.0 °F - 14.0 °F 21% 29.94 in 10.0 mi West 21.9 mph 31.1 mph N/A   Clear
9:35 PM 54.0 °F - 14.4 °F 21% 29.94 in 10.0 mi West 26.5 mph 35.7 mph N/A   Clear
9:55 PM 53.8 °F - 14.9 °F 22% 29.94 in 10.0 mi WSW 19.6 mph 28.8 mph N/A   Clear
10:15 PM 54.0 °F - 15.3 °F 22% 29.94 in 10.0 mi West 19.6 mph 29.9 mph N/A   Clear
10:35 PM 54.0 °F - 15.8 °F 22% 29.94 in 10.0 mi West 21.9 mph 31.1 mph N/A   Clear
10:55 PM 54.1 °F - 15.8 °F 22% 29.94 in 10.0 mi WSW 20.7 mph 34.5 mph N/A   Clear
11:15 PM 53.2 °F - 16.3 °F 23% 29.93 in 10.0 mi West 24.2 mph 36.8 mph N/A   Clear
11:35 PM 52.9 °F - 16.9 °F 24% 29.94 in 10.0 mi West 24.2 mph 32.2 mph N/A   Clear
11:55 PM 52.3 °F - 18.0 °F 26% 29.94 in 10.0 mi West 19.6 mph 38.0 mph N/A   Clear